Stations météo

Publicité
La Roche-Sur-Yon, France (7306): Température de l'air & dewpoint: 21.06.2019 13:00:00 - 27.06.2019 13:00:00 (CEST)La Roche-Sur-Yon, France (7306): Température de l'air 5cm: 21.06.2019 13:00:00 - 27.06.2019 13:00:00 (CEST)La Roche-Sur-Yon, France (7306): Température de l'air -20cm & Température de l'air -100cm: 21.06.2019 13:00:00 - 27.06.2019 13:00:00 (CEST)La Roche-Sur-Yon, France (7306): Vitesse du vent & gusts: 21.06.2019 13:00:00 - 27.06.2019 13:00:00 (CEST)La Roche-Sur-Yon, France (7306): Direction du vent: 21.06.2019 13:00:00 - 27.06.2019 13:00:00 (CEST)La Roche-Sur-Yon, France (7306): reduced air pressure: 21.06.2019 13:00:00 - 27.06.2019 13:00:00 (CEST)La Roche-Sur-Yon, France (7306): visibility: 21.06.2019 13:00:00 - 27.06.2019 13:00:00 (CEST)La Roche-Sur-Yon, France (7306): Ensoleillement: 21.06.2019 13:00:00 - 27.06.2019 13:00:00 (CEST)La Roche-Sur-Yon, France (7306): Quantités de précipitations: 21.06.2019 13:00:00 - 27.06.2019 13:00:00 (CEST)
Date & Time tt [°C] td [°C] tt 5cm [°C] tt -20cm [°C] tt -100cm [°C] ff [km/h] ff [knt] fx [km/h] fx [knt] dd ppp [hPa] vv [km] sd [min] rr [mm]
27.06.2019 13:00:00 - - - - - - - - - - - - - -
27.06.2019 12:00:00 31,7 17,6 35,5 20,9 16,8 15 8 25 14 ESE 1018,8 40 60 0,0
27.06.2019 11:00:00 30,1 16,9 32,7 20,9 16,8 17 9 25 13 ESE 1018,9 47 60 0,0
27.06.2019 10:00:00 28,6 16,5 30,2 20,9 16,8 16 9 27 14 SE 1018,6 20 60 0,0
27.06.2019 09:00:00 26,8 17,8 25,1 20,9 16,8 10 5 20 11 ESE 1018,5 19 60 0,0
27.06.2019 08:00:00 23,9 18,5 20,0 21,0 16,8 13 7 20 11 ENE 1018,1 60 60 0,0
27.06.2019 07:00:00 21,1 17,7 17,1 21,1 16,8 11 6 13 7 ENE 1017,7 55 20 0,0
27.06.2019 06:00:00 20,5 17,1 17,4 21,3 16,8 11 6 14 7 E 1017,3 59 0 0,0
27.06.2019 05:00:00 22,1 17,7 19,8 21,3 16,8 12 7 17 9 E 1016,7 60 0 0,0
27.06.2019 04:00:00 24,3 17,8 22,0 21,4 16,7 12 6 23 12 ENE 1016,5 60 0 0,0
27.06.2019 03:00:00 25,8 17,7 23,8 21,5 16,8 16 9 24 13 E 1016,3 60 0 0,0
27.06.2019 02:00:00 25,9 17,8 23,4 21,6 16,7 18 10 23 13 ENE 1016,2 60 0 0,0
27.06.2019 01:00:00 25,9 18,1 23,0 21,7 16,7 15 8 19 11 ENE 1016,5 60 0 0,0
27.06.2019 00:00:00 26,3 18,7 23,1 21,7 16,7 13 7 16 9 NNE 1016,6 60 0 0,0
26.06.2019 23:00:00 25,7 19,3 21,3 21,8 16,7 11 6 15 8 NE 1016,6 60 0 0,0
26.06.2019 22:00:00 27,9 18,9 22,6 21,8 16,7 5 3 11 6 ENE 1016,1 60 25 0,0
26.06.2019 21:00:00 31,3 20,6 29,1 21,7 16,7 5 3 14 8 E 1015,7 19 49 0,0
26.06.2019 20:00:00 34,0 17,7 35,2 21,6 16,7 11 6 26 14 ESE 1015,5 48 60 0,0
26.06.2019 19:00:00 35,0 17,7 37,0 21,5 16,7 16 8 31 17 E 1015,0 30 60 0,0
26.06.2019 18:00:00 35,0 16,8 37,7 21,3 16,7 22 12 35 19 E 1015,1 20 60 0,0
26.06.2019 17:00:00 34,9 17,6 38,5 21,0 16,7 21 11 34 18 E 1015,6 23 60 0,0
26.06.2019 16:00:00 34,3 17,1 38,2 20,8 16,6 21 11 34 18 E 1016,0 17 60 0,0
26.06.2019 15:00:00 33,4 18,0 37,6 20,6 16,7 17 9 35 19 E 1016,1 16 60 0,0
26.06.2019 14:00:00 32,3 17,4 36,2 20,4 16,6 24 13 43 23 E 1016,3 15 60 0,0
26.06.2019 13:00:00 30,9 18,3 34,1 20,3 16,6 26 14 36 19 E 1016,7 16 60 0,0
26.06.2019 12:00:00 29,6 19,3 31,7 20,2 16,6 24 13 39 21 E 1016,8 17 60 0,0
26.06.2019 11:00:00 27,6 20,4 28,8 20,2 16,6 27 14 35 19 E 1016,7 18 60 0,0
26.06.2019 10:00:00 24,8 20,3 23,6 20,2 16,6 21 12 36 20 ENE 1017,6 18 57 0,0
26.06.2019 09:00:00 21,7 19,6 22,5 20,3 16,6 23 12 32 17 NNE 1018,2 17 29 0,0
26.06.2019 08:00:00 20,7 19,4 19,8 20,3 16,6 18 10 34 18 N 1018,8 11 54 0,0
26.06.2019 07:00:00 19,8 19,1 18,9 20,4 16,6 19 11 33 18 NNE 1017,8 9 20 0,0
26.06.2019 06:00:00 19,6 18,9 18,9 20,5 16,6 19 10 28 15 NNE 1017,6 10 0 0,0
26.06.2019 05:00:00 19,6 18,6 18,9 20,6 16,6 19 11 28 15 NNE 1017,6 15 0 0,0
26.06.2019 04:00:00 19,7 18,4 19,0 20,7 16,6 17 9 28 15 NNE 1017,8 18 0 0,0
26.06.2019 03:00:00 20,7 18,8 19,8 20,8 16,6 16 9 27 15 NNE 1018,3 27 0 0,0
26.06.2019 02:00:00 20,6 18,7 19,9 20,8 16,6 17 9 24 13 N 1018,7 25 0 0,0
26.06.2019 01:00:00 21,0 18,8 20,0 20,9 16,6 14 7 24 13 N 1019,1 30 0 0,0
26.06.2019 00:00:00 21,8 19,0 20,8 21,0 16,6 16 9 23 13 N 1019,0 34 0 0,0
25.06.2019 23:00:00 22,3 19,1 21,1 21,0 16,6 11 6 24 13 N 1018,9 42 0 0,0
25.06.2019 22:00:00 23,8 19,3 22,7 21,0 16,6 15 8 22 12 N 1018,2 54 3 0,0
25.06.2019 21:00:00 24,9 19,5 24,4 21,0 16,6 14 8 20 11 N 1018,1 60 0 0,0
25.06.2019 20:00:00 25,8 19,4 25,7 20,9 16,6 13 7 22 12 NW 1018,0 55 3 0,0
25.06.2019 19:00:00 27,2 17,1 27,2 20,7 16,5 16 8 25 13 W 1017,8 60 49 0,0
25.06.2019 18:00:00 29,6 18,7 29,6 20,4 16,6 6 3 16 9 SW 1017,1 20 25 0,0
25.06.2019 17:00:00 28,6 17,5 30,6 20,1 16,5 5 3 19 10 NE 1017,8 59 42 0,0
25.06.2019 16:00:00 29,1 17,6 35,2 19,8 16,6 9 5 16 9 WSW 1017,3 20 58 0,0
25.06.2019 15:00:00 27,5 17,7 31,9 19,5 16,5 7 4 12 6 ESE 1017,4 56 53 0,0
25.06.2019 14:00:00 26,3 17,6 31,2 19,2 16,6 7 4 16 8 W 1017,4 20 60 0,0
25.06.2019 13:00:00 25,3 18,7 30,8 19,0 16,6 6 4 15 8 W 1017,3 18 60 0,0
25.06.2019 12:00:00 23,9 18,3 29,9 18,9 16,5 8 4 18 10 W 1017,2 20 60 0,0
25.06.2019 11:00:00 22,7 18,2 27,4 18,8 16,5 8 4 21 11 W 1016,9 18 55 0,0
25.06.2019 10:00:00 20,8 17,8 25,1 18,8 16,5 5 3 11 6 W 1016,9 13 49 0,0
25.06.2019 09:00:00 19,6 17,4 18,5 18,8 16,5 4 2 8 5 SE 1016,4 13 41 0,0
25.06.2019 08:00:00 17,2 16,9 17,1 18,8 16,5 5 3 13 7 E 1015,9 6 0 0,0
25.06.2019 07:00:00 16,9 16,6 16,9 18,9 16,5 11 6 17 9 NE 1015,3 4,4 0 0,0
25.06.2019 06:00:00 17,0 16,7 17,0 18,9 16,5 10 5 20 11 N 1015,2 5 0 0,0
25.06.2019 05:00:00 17,2 16,7 17,1 19,0 16,5 13 7 19 11 N 1014,8 6 0 0,0
25.06.2019 04:00:00 17,4 16,9 16,7 19,0 16,5 13 7 20 11 N 1014,9 10 0 0,0
25.06.2019 03:00:00 17,4 16,8 16,5 19,1 16,5 11 6 18 10 NNW 1014,9 16 0 0,0
25.06.2019 02:00:00 17,5 16,7 16,6 19,1 16,5 10 5 16 8 NNW 1015,0 13 0 0,0
25.06.2019 01:00:00 18,4 17,2 17,4 19,1 16,5 11 6 29 15 N 1014,7 17 0 0,0
25.06.2019 00:00:00 19,3 17,8 18,7 19,2 16,5 20 11 32 17 NNE 1014,6 36 0 0,0
24.06.2019 23:00:00 19,7 17,7 18,9 19,2 16,5 18 10 29 16 NNE 1014,3 60 0 0,0
24.06.2019 22:00:00 20,1 16,7 19,4 19,2 16,5 18 10 29 16 N 1014,1 60 0 0,0
24.06.2019 21:00:00 20,5 16,7 20,3 19,2 16,5 22 12 37 20 N 1014,2 60 0 0,0
24.06.2019 20:00:00 21,2 17,4 21,0 19,2 16,5 15 8 41 22 N 1014,3 60 0 0,0
24.06.2019 19:00:00 21,5 17,7 21,6 19,1 16,5 19 10 29 16 NNW 1014,7 58 0 0,0
24.06.2019 18:00:00 22,1 17,2 22,8 19,1 16,5 21 11 40 22 NNE 1013,7 41 0 0,0
24.06.2019 17:00:00 22,1 17,0 22,5 19,0 16,5 16 9 36 19 NNE 1014,9 60 6 0,0
24.06.2019 16:00:00 21,4 17,0 22,7 19,0 16,5 15 8 39 21 NNE 1015,1 47 0 0,0
24.06.2019 15:00:00 20,0 17,6 20,6 18,9 16,4 24 13 39 21 NNE 1014,3 60 0 0,0
24.06.2019 14:00:00 19,4 17,5 19,0 19,0 16,4 24 13 34 18 N 1015,1 60 8 0,0
24.06.2019 13:00:00 18,3 17,0 17,0 19,0 16,4 23 12 44 24 NE 1014,5 50 0 1,0
24.06.2019 12:00:00 17,3 16,5 17,0 19,1 16,4 22 12 31 17 NNE 1014,8 18 0 0,6
24.06.2019 11:00:00 17,3 16,5 17,0 19,1 16,4 18 10 25 14 N 1015,4 20 0 0,2
24.06.2019 10:00:00 17,3 16,3 16,5 19,1 16,4 16 9 39 21 NE 1015,7 20 0 0,8
24.06.2019 09:00:00 17,1 16,0 16,4 19,2 16,4 14 8 21 11 N 1016,6 11 0 0,8
24.06.2019 08:00:00 17,1 16,0 16,5 19,3 16,4 11 6 19 10 N 1015,8 34 0 0,0
24.06.2019 07:00:00 16,9 15,9 16,3 19,3 16,4 12 6 24 13 N 1015,4 20 0 0,0
24.06.2019 06:00:00 17,0 16,4 16,4 19,4 16,4 12 6 21 11 N 1014,9 12 0 0,0
24.06.2019 05:00:00 17,1 16,6 16,2 19,5 16,4 11 6 16 8 NW 1015,0 12 0 0,0
24.06.2019 04:00:00 17,3 16,5 16,7 19,6 16,4 8 4 16 9 NNW 1015,0 17 0 0,0
24.06.2019 03:00:00 17,9 16,8 16,7 19,7 16,4 11 6 16 8 NW 1015,0 19 0 0,0
24.06.2019 02:00:00 17,7 16,7 15,3 19,7 16,4 4 2 7 4 WSW 1015,3 44 0 0,0
24.06.2019 01:00:00 17,4 15,7 15,3 19,8 16,4 3 2 10 5 ENE 1014,3 44 0 0,0
24.06.2019 00:00:00 18,2 16,2 16,8 19,9 16,4 7 4 16 9 ENE 1013,8 48 0 0,0
23.06.2019 23:00:00 19,2 16,4 18,1 19,9 16,4 9 5 13 7 NNW 1013,6 59 0 0,0
23.06.2019 22:00:00 19,9 16,7 19,1 19,9 16,4 9 5 20 11 SSW 1013,8 54 0 0,0
23.06.2019 21:00:00 20,5 17,3 20,3 19,9 16,4 13 7 28 15 SW 1013,2 20 14 0,0
23.06.2019 20:00:00 21,9 17,7 23,4 19,8 16,4 16 9 26 14 S 1012,4 50 23 0,0
23.06.2019 19:00:00 22,7 17,6 24,6 19,7 16,4 16 9 32 17 SSW 1011,6 45 0 0,0
23.06.2019 18:00:00 25,5 16,6 27,6 19,5 16,4 18 10 40 22 S 1010,8 59 4 0,0
23.06.2019 17:00:00 28,1 15,4 30,4 19,3 16,4 27 15 43 23 S 1010,7 33 54 0,0
23.06.2019 16:00:00 29,4 15,1 34,0 19,1 16,4 27 15 41 22 S 1010,3 36 60 0,0
23.06.2019 15:00:00 29,3 13,9 32,8 18,9 16,4 19 11 33 18 SE 1010,1 40 44 0,0
23.06.2019 14:00:00 28,2 12,1 31,7 18,8 16,4 18 10 32 17 ESE 1010,5 45 46 0,0
23.06.2019 13:00:00 27,3 13,3 32,5 18,6 16,4 16 9 33 18 ESE 1010,7 50 58 0,0
23.06.2019 12:00:00 25,9 13,7 28,5 18,5 16,4 18 10 29 16 SE 1011,4 59 54 0,0
23.06.2019 11:00:00 24,4 15,1 27,5 18,4 16,4 16 9 27 15 SE 1011,6 60 60 0,0
23.06.2019 10:00:00 22,4 14,8 24,7 18,4 16,4 15 8 24 13 ESE 1011,7 60 56 0,0
23.06.2019 09:00:00 20,8 14,9 18,2 18,5 16,4 13 7 20 11 E 1011,8 60 38 0,0
23.06.2019 08:00:00 18,0 14,1 16,0 18,6 16,4 11 6 18 10 E 1011,9 58 5 0,0
23.06.2019 07:00:00 16,9 13,2 14,0 18,6 16,3 14 8 23 12 E 1012,0 48 13 0,0
23.06.2019 06:00:00 15,3 12,2 13,0 18,7 16,3 11 6 18 10 E 1012,5 60 0 0,0
23.06.2019 05:00:00 14,9 12,4 10,0 18,9 16,3 13 7 16 9 E 1013,0 60 0 0,0
23.06.2019 04:00:00 13,9 11,2 9,9 19,0 16,3 10 5 14 7 E 1013,1 60 0 0,0
23.06.2019 03:00:00 15,4 11,8 10,6 19,1 16,3 8 4 12 7 E 1013,9 60 0 0,0
23.06.2019 02:00:00 15,4 11,6 10,7 19,2 16,3 8 4 12 6 E 1014,6 60 0 0,0
23.06.2019 01:00:00 16,0 10,7 10,3 19,4 16,4 9 5 12 7 ENE 1014,7 60 0 0,0
23.06.2019 00:00:00 16,5 10,8 10,2 19,5 16,3 9 5 13 7 ENE 1015,0 60 0 0,0
22.06.2019 23:00:00 17,5 10,6 11,4 19,5 16,4 10 5 12 7 ENE 1015,1 60 0 0,0
22.06.2019 22:00:00 19,5 11,3 13,9 19,5 16,3 7 4 14 8 E 1014,7 60 4 0,0
22.06.2019 21:00:00 22,2 11,3 21,3 19,5 16,3 12 6 25 13 E 1014,6 60 30 0,0
22.06.2019 20:00:00 25,1 11,3 25,1 19,4 16,3 14 8 26 14 E 1014,6 51 53 0,0
22.06.2019 19:00:00 25,0 9,7 27,6 19,3 16,3 17 9 29 16 E 1014,7 60 60 0,0
22.06.2019 18:00:00 25,0 10,5 27,6 19,1 16,3 15 8 27 15 E 1015,4 60 48 0,0
22.06.2019 17:00:00 24,9 10,4 27,4 18,9 16,3 13 7 29 16 SE 1015,8 48 39 0,0
22.06.2019 16:00:00 25,1 10,2 29,9 18,7 16,3 13 7 34 18 E 1016,3 45 54 0,0
22.06.2019 15:00:00 24,4 8,8 26,6 18,5 16,3 12 7 28 15 SE 1016,8 45 52 0,0
22.06.2019 14:00:00 24,2 9,7 26,6 18,3 16,3 15 8 34 19 E 1017,4 49 50 0,0
22.06.2019 13:00:00 22,7 9,8 26,1 18,2 16,3 16 8 29 15 E 1017,8 49 54 0,0
22.06.2019 12:00:00 22,3 10,1 28,7 18,1 16,3 12 6 25 13 ESE 1018,4 19 60 0,0
22.06.2019 11:00:00 21,8 11,2 25,8 18,0 16,3 15 8 24 13 ESE 1018,7 59 60 0,0
22.06.2019 10:00:00 20,1 11,0 22,1 18,1 16,3 12 6 22 12 E 1019,1 60 60 0,0
22.06.2019 09:00:00 18,1 11,2 17,2 18,1 16,3 15 8 19 10 E 1019,5 60 60 0,0
22.06.2019 08:00:00 14,7 11,7 10,4 18,3 16,3 10 6 14 8 E 1019,5 60 60 0,0
22.06.2019 07:00:00 10,6 9,7 5,2 18,4 16,3 8 4 14 7 ENE 1019,8 55 10 0,0
22.06.2019 06:00:00 10,3 8,4 5,0 18,6 16,3 8 5 11 6 NE 1019,6 60 0 0,0
22.06.2019 05:00:00 11,0 8,7 7,1 18,7 16,3 10 5 17 9 ENE 1019,5 60 0 0,0
22.06.2019 04:00:00 10,9 9,2 5,2 18,8 16,3 10 5 16 9 NE 1020,0 60 0 0,0
22.06.2019 03:00:00 11,6 9,2 6,7 18,9 16,3 6 4 15 8 E 1020,4 60 0 0,0
22.06.2019 02:00:00 12,8 9,6 10,0 19,0 16,3 11 6 16 9 NNE 1020,6 60 0 0,0
22.06.2019 01:00:00 13,8 9,4 10,4 19,2 16,3 8 5 13 7 N 1020,9 60 0 0,0
22.06.2019 00:00:00 15,1 9,2 11,7 19,2 16,3 8 4 13 7 NNW 1020,8 60 0 0,0
21.06.2019 23:00:00 16,7 9,6 14,4 19,3 16,2 10 5 17 9 N 1020,6 60 0 0,0
21.06.2019 22:00:00 18,4 9,7 16,3 19,3 16,2 9 5 16 9 N 1020,0 60 35 0,0
21.06.2019 21:00:00 20,7 9,0 21,4 19,3 16,3 11 6 16 9 N 1019,6 60 57 0,0
21.06.2019 20:00:00 21,2 9,1 20,5 19,2 16,3 10 6 23 13 N 1019,4 57 6 0,0
21.06.2019 19:00:00 22,7 8,4 25,0 19,1 16,2 17 9 26 14 NE 1019,3 60 44 0,0
21.06.2019 18:00:00 23,0 9,7 26,5 19,0 16,3 13 7 29 16 N 1019,1 60 40 0,0
21.06.2019 17:00:00 22,5 9,3 25,1 18,8 16,2 9 5 20 11 NNE 1019,4 40 10 0,0
21.06.2019 16:00:00 22,2 9,0 26,0 18,7 16,2 9 5 21 11 N 1019,5 59 6 0,0
21.06.2019 15:00:00 21,7 9,9 25,6 18,5 16,2 14 7 24 13 N 1019,7 60 33 0,0
21.06.2019 14:00:00 22,0 10,5 24,5 18,3 16,2 16 9 22 12 N 1019,9 44 28 0,0
21.06.2019 13:00:00 20,5 8,8 24,3 18,3 16,2 9 5 26 14 NE 1019,9 57 43 0,0

tt = Température de l'air
td = dewpoint
tt 5cm = Température de l'air 5cm
tt -20cm = Température de l'air -20cm
tt -100cm = Température de l'air -100cm
ff = Vitesse du vent
fx = gusts
dd = Direction du vent
ppp = reduced air pressure
vv = visibility
sd = Ensoleillement
rr = Quantités de précipitations

stations d'obs. à proximité